FLOCK 2E'-7

Last updated on Wed Oct 04 2017 00:15:19 GMT+0000 (Coordinated Universal Time)

1 41570U 98067JU 17276.23066052 .07821693 11956-4 21580-2 0 9994 2 41570 51.6314 172.6072 0011089 233.3572 126.6600 16.26996484 76726

Satellite not in orbit